Regional Weather Roundup
Issued by NWS

Home | Current Version | Previous Version | Text Only | Print | Product List | Glossary On
Versions: 1 2 3 4 5 6 7 8 9 10 11 12 13 14 15 16 17 18 19 20 21 22 23 24 25 26 27 28 29 30 31 32 33 34 35 36 37 38 39 40 41 42 43 44 45 46 47 48 49 50
000
ASUS43 KMKX 291721
RWRWI

WISCONSIN REGIONAL WEATHER ROUNDUP
NATIONAL WEATHER SERVICE MILWAUKEE/SULLIVAN WI
1200 PM CDT WED MAR 29 2017

NOTE: "FAIR" INDICATES FEW OR NO CLOUDS BELOW 12,000 FEET WITH NO
SIGNIFICANT WEATHER AND/OR OBSTRUCTIONS TO VISIBILITY.

WIZ001-002-006>008-014>016-023>028-291800-
NORTHWEST WISCONSIN

CITY           SKY/WX    TMP DP  RH WIND       PRES   REMARKS
SUPERIOR ARPT  CLOUDY    36  32  86 NE13G21   30.33F WCI  28
ASHLAND        PTSUNNY   39  32  76 N7        30.33  WCI  34
HAYWARD        CLOUDY    49  27  42 E6        30.27F
SIREN          CLOUDY    46  31  55 CALM      30.27F
CUMBERLAND     CLOUDY    45  30  57 E6        30.26F
RICE LAKE      CLOUDY    47  30  52 CALM      30.28F
CHETEK         CLOUDY    48  32  53 SE12      30.27S
LADYSMITH      PTSUNNY   50  31  49 SE6       30.30S
EAU CLAIRE     CLOUDY    47  31  53 E9        30.27S
MENOMONIE      CLOUDY    47  32  55 E7        30.27F
NEW RICHMOND   CLOUDY    48  32  53 SE6       30.26F
OSCEOLA        CLOUDY    49  32  50 SE7       30.29S
$$

WIZ003>005-009-010-017-018-291800-
NORTH CENTRAL WISCONSIN

CITY           SKY/WX    TMP DP  RH WIND       PRES   REMARKS
MANITOWISH WTR CLOUDY    44  28  51 S7        30.29F
ARBOR VITAE    PTSUNNY   45  29  54 SE5       30.29F
WOODRUFF       PTSUNNY   45  29  54 SE5       30.29F
RHINELANDER    CLOUDY    48  29  47 SE8       30.30F
EAGLE RIVER    MOSUNNY   45  26  48 E6        30.30F
LAND O LAKES   CLOUDY    44  27  50 SE3       30.33S
PHILLIPS       CLOUDY    48  31  51 SE7       30.28F
TOMAHAWK       CLOUDY    47  28  48 E5        30.30F
MEDFORD        CLOUDY    42  31  64 E7        30.28S
MERRILL        CLOUDY    44  29  55 E9        30.31S
$$

WIZ029-030-035-036-043>047-291800-
CENTRAL WISCONSIN

CITY           SKY/WX    TMP DP  RH WIND       PRES   REMARKS
WAUSAU         CLOUDY    46  28  49 E9        30.28F
MOSINEE        PTSUNNY   45  30  57 E12       30.30F
MARSHFIELD     CLOUDY    44  30  57 SE9       30.27S
STEVENS POINT  CLOUDY    43  28  57 E12       30.30S
WAUPACA        CLOUDY    46  32  59 E6        30.31F
WAUTOMA        CLOUDY    44  34  67 E9        30.30F
WISC RAPIDS    PTSUNNY   46  31  55 E10       30.30S
CAMP DOUGLAS   CLOUDY    43  36  75 E8        30.27F
$$

WIZ011>013-019>022-031-037>040-048>050-291800-
NORTHEAST WISCONSIN

CITY           SKY/WX    TMP DP  RH WIND       PRES   REMARKS
ANTIGO         MOSUNNY   42  30  62 E12       30.31F
SHAWANO        CLOUDY    44  33  66 E7        30.34F
OCONTO         CLOUDY    40  32  71 NE7       30.35F
STURGEON BAY   CLOUDY    40  32  73 NE9       30.34F WCI  34
GREEN BAY      CLOUDY    39  35  86 NE13      30.33F WCI  31
MANITOWOC      CLOUDY    37  36  93 NE10      30.33F WCI  30
APPLETON       PTSUNNY   41  32  70 E10       30.29F
CLINTONVILLE   CLOUDY    43  30  61 E9        30.32F
OSHKOSH        CLOUDY    43  36  76 NE6       30.30F
$$

WIZ032>034-041-042-053>061-291800-
SOUTHWEST WISCONSIN

CITY           SKY/WX    TMP DP  RH WIND       PRES   REMARKS
LA CROSSE      CLOUDY    45  33  63 E8        30.25F
SPARTA         CLOUDY    43  35  73 E7        30.27F
VIROQUA        CLOUDY    41  35  77 CALM      30.23F
BOSCOBEL       CLOUDY    46  36  68 E7        30.23F
PRAIRIE DU CHI CLOUDY    46  33  59 E6        30.22S
PLATTEVILLE    CLOUDY    45  37  73 E16       30.21R
$$

WIZ056-057-062-063-064-067-068-291800-
SOUTH CENTRAL WISCONSIN

CITY           SKY/WX    TMP DP  RH WIND       PRES   REMARKS
REEDSBURG      CLOUDY    41  37  86 NE7       30.25F
BARABOO/DELLS  CLOUDY    41  35  80 E13       30.25F
LONE ROCK      PTSUNNY   45  35  68 E10       30.25S
MINERAL POINT  CLOUDY    46  34  61 E12G20    30.21R
MADISON        CLOUDY    44  37  76 E9        30.26F
MIDDLETON      PTSUNNY   45  38  79 E12       30.25F
WATERTOWN      CLOUDY    46  36  67 E9        30.27S
MONROE         CLOUDY    43  34  70 E14G21    30.20F
JANESVILLE     CLOUDY    48  36  61 E13G18    30.24F
$$

WIZ051-052-058>065-066-070>072-291800-
SOUTHEAST WISCONSIN

CITY           SKY/WX    TMP DP  RH WIND       PRES   REMARKS
MILWAUKEE      CLOUDY    41  36  82 NE7       30.29F
WAUKESHA       MOSUNNY   43  34  70 E7        30.29S
MILWAUKEE/TIMM SUNNY     43  32  65 E5        30.29F
RACINE         CLOUDY    41  36  82 NE8       30.30F
KENOSHA        PTSUNNY   43  35  73 E12       30.28S
FOND DU LAC    CLOUDY    47  38  71 E6        30.29F
SHEBOYGAN      PTSUNNY   40  37  89 NE12      30.31F WCI  33
WEST BEND      PTSUNNY   45  39  81 E8        30.28F
JUNEAU         CLOUDY    45  37  72 E7        30.29S
$$

LSZ147-162-291800-
LAKE SUPERIOR

STATION/POSITION TIME  TEMP    WIND        PRES    WAVE
                       AIR SEA DIR/SP/G            HT/PER
                 (UTC) (F)     (DEG/KT/KT) (MB)    (FT/S)
DEVILS ISLAND    1700   34      60/ 15/ 17 1028.9S
PORT WING        1630   35      30/ 15/ 17 1027.1F
SAXON HARBOR     1640   36     340/  3/  3 1026.8S
$$

LMZ867-665-643>646-291800-
LAKE MICHIGAN

STATION/POSITION TIME  TEMP    WIND        PRES    WAVE
                       AIR SEA DIR/SP/G            HT/PER
                 (UTC) (F)     (DEG/KT/KT) (MB)    (FT/S)
CHAMBERS ISLAND  1640   34      10/ 10/ 11 1028.1S
NORTHPORT PIER   1640   34      90/  6/  8 1028.4S
SISTER BAY       1551   44      40/  7/ 11   N/A
KEWAUNEE LAKESHO 1648   34      30/ 12/ 17 1027.2F
SHEBOYGAN LAKESH 1700   36     360/ 12/ 13 1026.9F
PORT WASHINGTON  1640   40      40/  7/  9 1026.8F
MILWAUKEE LAKESH 1650   37      30/  9/ 10   N/A
KENOSHA   LAKESH 1700   38      30/  8/ 12 1025.4
$$

TC  - TEMPERATURE IN CELSIUS
VSB - VISIBILITY IN STATUTE MILES
WCI - WIND CHILL INDEX
HX  - HEAT INDEX





USA.gov is the U.S. government's official web portal to all federal, state and local government web resources and services.